Tracking 28790 objects as of 19-Apr-2024
HD Live streaming from Space Station
objects crossing your sky now

OBJECT J

Track OBJECT J now!
10-day predictions


NORAD ID: 44887
Int'l Code: 2019-093J
Perigee: 606.5 km
Apogee: 627.3 km
Inclination: 97.8 °
Period: 96.9 minutes
Semi major axis: 6987 km
RCS: Unknown
Launch date: December 20, 2019
Source: (TBD)
Launch site: Taiyaun Space Center, China (TSC)

Note: This is a ROCKET BODY
Your satellite tracking list
Your tracking list is empty




NASA's NSSDC Master Catalog

Two Line Element Set (TLE):
1 44887U 19093J   24110.17016634  .00006092  00000-0  69779-3 0  9997
2 44887  97.8431 192.5022 0014874 156.1790 204.0117 14.86226048234510
Source of the keplerian elements: AFSPC